Location: *
(50.2903°S, 172.5375°W)
Time: 16:34:01
(UTC+00:00)

deb Chang Zheng 4 - Pass Details

Date: 17 November 2019
Orbit: 605 x 629 km, 98.5° (Epoch: 06 December)

Event Time Altitude Azimuth Distance (km) Brightness Sun altitude
Exits shadow 13:10:49 20° 14° (NNE) 1,456 5.0 -16.2°
Maximum altitude 13:13:50 86° 287° (WNW) 643 3.5 -15.9°
Drops below altitude 10° 13:18:18 10° 196° (SSW) 2,043 6.8 -15.6°
Sets 13:20:31 0° 195° (SSW) 2,961 7.8 -15.4°
